Regional Weather Roundup
Issued by NWS

Home | Current Version | Previous Version | Text Only | Print | Product List | Glossary Off
Versions: 1 2 3 4 5 6 7 8 9 10 11 12 13 14 15 16 17 18 19 20 21 22 23 24 25 26 27 28 29 30 31 32 33 34 35 36 37 38 39 40 41 42 43 44 45 46 47 48 49 50

000
ASUS43 KFSD 171102
RWRSD

WEATHER ROUNDUP FOR SOUTH DAKOTA
NATIONAL WEATHER SERVICE SIOUX FALLS SD
500 AM CST SUN DEC 17 2017

NOTE: "FAIR" INDICATES FEW OR NO CLOUDS BELOW 12,000 FEET WITH NO
SIGNIFICANT WEATHER AND/OR OBSTRUCTIONS TO VISIBILITY.


SDZ001>005-009-010-012>017-171200-
NORTHWEST AND NORTH CENTRAL SOUTH DAKOTA

CITY           SKY/WX    TMP DP  RH WIND       PRES   REMARKS
BUFFALO          N/A     26  22  84 W5        29.93F WCI  20
FAITH            N/A     25  23  92 W3        30.03S
MOBRIDGE       CLOUDY    28  24  85 N3        30.02S
$$

SDZ012>016-024>037-041>051-057-063-072>074-171200-
SOUTHWEST AND SOUTH CENTRAL SOUTH DAKOTA

CITY           SKY/WX    TMP DP  RH WIND       PRES   REMARKS
RAPID CTY ARPT CLOUDY    29  26  89 N3        30.02F
PIERRE         CLOUDY    29  28  96 CALM      30.04F
CUSTER         CLOUDY    23  18  81 CALM      29.93F
ELLSWORTH AFB  CLOUDY    29  29 100 N6        30.01F WCI  23
PHILIP         CLOUDY    31  28  89 W3        30.04F
PINE RIDGE     CLOUDY    30  28  92 CALM      30.03S
SPEARFISH      CLOUDY    27  27 100 CALM      29.99F FOG
WINNER         CLOUDY    32  29  88 W5        30.05R WCI  27
$$

SDZ004>011-016>023-039-040-171200-
NORTHEAST SOUTH DAKOTA

CITY           SKY/WX    TMP DP  RH WIND       PRES   REMARKS
ABERDEEN       PTCLDY    22  22 100 CALM      30.06S
WATERTOWN      CLOUDY    27  27 100 CALM      30.03F
BROOKINGS      CLOUDY    26  26 100 N3        30.05  FOG
SISSETON         N/A     28  27  96 SE5       30.05F WCI  23
$$

SDZ017-020-022-023-036>040-048>070-171200-
SOUTHEAST SOUTH DAKOTA

CITY           SKY/WX    TMP DP  RH WIND       PRES   REMARKS
SIOUX FALLS    CLOUDY    25  23  92 N7        30.02F FOG     WCI  17
HURON          CLOUDY    27  27 100 MISG      30.06S FOG
CHAMBERLAIN    CLOUDY    32  32 100 CALM      30.06R
MITCHELL       CLOUDY    27  26  96 NW5       30.06F WCI  22
YANKTON        CLOUDY    25  23  92 NW5       30.04R WCI  19
$$

ABBREVIATIONS USED IN REMARKS
   TC - TEMPERATURE IN CELSIUS
  WCI - WIND CHILL INDEX
   HX - HEAT INDEX
  VSB - VISIBILITY





USA.gov is the U.S. government's official web portal to all federal, state and local government web resources and services.